Time,TemperatureF,DewpointF,PressureIn,WindDirection,WindDirectionDegrees,WindSpeedMPH,WindSpeedGustMPH,Humidity,HourlyPrecipIn,Conditions,Clouds,dailyrainin,SoftwareType,DateUTC
2013-05-26 00:02:00,72.0,63.0,28.40,SE,126,0.0,5.0,74,0.00,,,0.00,,2013-05-26 05:02:00,
2013-05-26 00:12:00,72.0,63.0,28.40,SE,126,0.0,5.0,74,0.00,,,0.00,,2013-05-26 05:12:00,
2013-05-26 00:22:00,71.0,63.0,28.40,SSW,197,0.0,5.0,75,0.00,,,0.00,,2013-05-26 05:22:00,
2013-05-26 00:32:00,71.0,63.0,28.40,SE,145,2.0,3.0,77,0.00,,,0.00,,2013-05-26 05:32:00,
2013-05-26 00:42:00,71.0,63.0,28.40,SE,145,2.0,3.0,77,0.00,,,0.00,,2013-05-26 05:42:00,
2013-05-26 00:52:00,71.0,63.0,28.40,SE,145,2.0,3.0,77,0.00,,,0.00,,2013-05-26 05:52:00,
2013-05-26 01:01:00,71.0,64.0,28.40,ESE,112,3.0,7.0,79,0.00,,,0.00,,2013-05-26 06:01:00,
2013-05-26 01:12:00,71.0,64.0,28.40,ESE,112,3.0,7.0,79,0.00,,,0.00,,2013-05-26 06:12:00,
2013-05-26 01:22:00,71.0,64.0,28.40,ESE,119,5.0,7.0,79,0.00,,,0.00,,2013-05-26 06:22:00,
2013-05-26 01:32:00,71.0,64.0,28.40,SSE,154,3.0,5.0,79,0.00,,,0.00,,2013-05-26 06:32:00,
2013-05-26 01:42:00,71.0,64.0,28.40,SSE,154,3.0,5.0,79,0.00,,,0.00,,2013-05-26 06:42:00,
2013-05-26 01:52:00,70.0,63.0,28.43,SSE,163,3.0,5.0,78,0.00,,,0.00,,2013-05-26 06:52:00,
2013-05-26 02:01:00,70.0,63.0,28.40,SSW,194,3.0,5.0,78,0.00,,,0.00,,2013-05-26 07:01:00,
2013-05-26 02:11:00,70.0,63.0,28.40,SSW,194,3.0,5.0,78,0.00,,,0.00,,2013-05-26 07:11:00,
2013-05-26 02:21:00,70.0,63.0,28.40,SSW,194,3.0,5.0,78,0.00,,,0.00,,2013-05-26 07:21:00,
2013-05-26 02:31:00,69.0,63.0,28.40,SSE,168,2.0,5.0,80,0.00,,,0.00,,2013-05-26 07:31:00,
2013-05-26 02:42:00,69.0,63.0,28.40,SSE,168,2.0,5.0,80,0.00,,,0.00,,2013-05-26 07:42:00,
2013-05-26 02:52:00,70.0,64.0,28.43,SSE,147,5.0,7.0,80,0.00,,,0.00,,2013-05-26 07:52:00,
2013-05-26 03:01:00,70.0,64.0,28.43,SE,133,3.0,7.0,80,0.00,,,0.00,,2013-05-26 08:01:00,
2013-05-26 03:11:00,70.0,64.0,28.43,SE,133,3.0,7.0,80,0.00,,,0.00,,2013-05-26 08:11:00,
2013-05-26 03:21:00,70.0,64.0,28.43,SE,133,3.0,7.0,80,0.00,,,0.00,,2013-05-26 08:21:00,
2013-05-26 03:32:00,70.0,64.0,28.43,SE,133,3.0,7.0,80,0.00,,,0.00,,2013-05-26 08:32:00,
2013-05-26 03:42:00,70.0,64.0,28.43,SE,133,3.0,7.0,80,0.00,,,0.00,,2013-05-26 08:42:00,
2013-05-26 03:53:00,69.0,62.0,28.37,ESE,118,2.0,6.0,79,0.00,,,0.00,,2013-05-26 08:53:00,
2013-05-26 04:01:00,69.0,62.0,28.37,SE,140,3.0,6.0,79,0.00,,,0.00,,2013-05-26 09:01:00,
2013-05-26 04:11:00,69.0,62.0,28.34,SE,139,3.0,5.0,79,0.00,,,0.00,,2013-05-26 09:11:00,
2013-05-26 04:21:00,69.0,62.0,28.34,SE,139,3.0,5.0,79,0.00,,,0.00,,2013-05-26 09:21:00,
2013-05-26 04:33:00,69.0,62.0,28.34,SE,139,3.0,5.0,79,0.00,,,0.00,,2013-05-26 09:33:00,
2013-05-26 04:42:00,69.0,62.0,28.34,SE,139,3.0,5.0,79,0.00,,,0.00,,2013-05-26 09:42:00,
2013-05-26 04:53:00,69.0,63.0,28.34,SSW,209,2.0,8.0,80,0.00,,,0.00,,2013-05-26 09:53:00,
2013-05-26 05:02:00,68.0,62.0,28.34,WSW,258,5.0,9.0,81,0.00,,,0.00,,2013-05-26 10:02:00,
2013-05-26 05:12:00,68.0,62.0,28.34,WSW,258,5.0,9.0,81,0.00,,,0.00,,2013-05-26 10:12:00,
2013-05-26 05:23:00,68.0,62.0,28.34,ESE,112,7.0,7.0,82,0.00,,,0.00,,2013-05-26 10:23:00,
2013-05-26 05:33:00,68.0,63.0,28.34,ENE,69,3.0,7.0,83,0.00,,,0.00,,2013-05-26 10:33:00,
2013-05-26 05:42:00,68.0,63.0,28.34,ENE,69,3.0,7.0,83,0.00,,,0.00,,2013-05-26 10:42:00,
2013-05-26 05:52:00,68.0,63.0,28.34,ENE,69,3.0,7.0,83,0.00,,,0.00,,2013-05-26 10:52:00,
2013-05-26 06:03:00,68.0,63.0,28.34,ENE,69,3.0,7.0,83,0.00,,,0.00,,2013-05-26 11:03:00,
2013-05-26 06:11:00,68.0,63.0,28.34,ENE,69,3.0,7.0,83,0.00,,,0.00,,2013-05-26 11:11:00,
2013-05-26 07:21:00,68.0,63.0,28.34,SE,140,5.0,10.0,85,0.00,,,0.00,,2013-05-26 12:21:00,
2013-05-26 07:32:00,68.0,63.0,28.34,SE,125,2.0,7.0,85,0.00,,,0.00,,2013-05-26 12:32:00,
2013-05-26 07:42:00,68.0,63.0,28.34,SE,125,2.0,7.0,85,0.00,,,0.00,,2013-05-26 12:42:00,
2013-05-26 07:52:00,68.0,63.0,28.37,ESE,122,3.0,7.0,85,0.00,,,0.00,,2013-05-26 12:52:00,
2013-05-26 08:02:00,68.0,63.0,28.34,SSE,156,5.0,7.0,85,0.00,,,0.00,,2013-05-26 13:02:00,
2013-05-26 08:11:00,68.0,63.0,28.34,SSE,156,5.0,7.0,85,0.00,,,0.00,,2013-05-26 13:11:00,
2013-05-26 08:21:00,68.0,63.0,28.34,SSE,156,5.0,7.0,85,0.00,,,0.00,,2013-05-26 13:21:00,
2013-05-26 08:32:00,69.0,64.0,28.31,SSE,155,3.0,9.0,85,0.00,,,0.00,,2013-05-26 13:32:00,
2013-05-26 08:42:00,69.0,64.0,28.31,ESE,115,5.0,10.0,84,0.00,,,0.00,,2013-05-26 13:42:00,
2013-05-26 08:52:00,69.0,64.0,28.31,ESE,115,5.0,10.0,84,0.00,,,0.00,,2013-05-26 13:52:00,
2013-05-26 09:02:00,69.0,64.0,28.31,ESE,115,5.0,10.0,84,0.00,,,0.00,,2013-05-26 14:02:00,
2013-05-26 09:11:00,69.0,64.0,28.31,ESE,115,5.0,10.0,84,0.00,,,0.00,,2013-05-26 14:11:00,
2013-05-26 09:21:00,70.0,64.0,28.28,SSE,151,9.0,10.0,82,0.00,,,0.00,,2013-05-26 14:21:00,
2013-05-26 09:32:00,70.0,64.0,28.28,SSE,151,9.0,10.0,82,0.00,,,0.00,,2013-05-26 14:32:00,
2013-05-26 09:42:00,70.0,64.0,28.34,ESE,115,3.0,13.0,81,0.00,,,0.00,,2013-05-26 14:42:00,
2013-05-26 09:52:00,70.0,64.0,28.34,ESE,115,3.0,13.0,81,0.00,,,0.00,,2013-05-26 14:52:00,
2013-05-26 10:01:00,70.0,64.0,28.34,East,82,3.0,13.0,81,0.00,,,0.00,,2013-05-26 15:01:00,
2013-05-26 10:12:00,70.0,64.0,28.34,East,82,3.0,13.0,81,0.00,,,0.00,,2013-05-26 15:12:00,
2013-05-26 10:22:00,71.0,65.0,28.34,SSW,200,5.0,5.0,81,0.00,,,0.00,,2013-05-26 15:22:00,
2013-05-26 10:33:00,71.0,65.0,28.34,SSW,200,5.0,5.0,81,0.00,,,0.00,,2013-05-26 15:33:00,
2013-05-26 10:43:00,71.0,65.0,28.37,SE,143,3.0,7.0,80,0.00,,,0.00,,2013-05-26 15:43:00,
2013-05-26 10:53:00,71.0,65.0,28.37,SE,143,3.0,7.0,80,0.00,,,0.00,,2013-05-26 15:53:00,
2013-05-26 11:03:00,71.0,65.0,28.37,SE,143,3.0,7.0,80,0.00,,,0.00,,2013-05-26 16:03:00,
2013-05-26 11:12:00,71.0,65.0,28.37,SE,143,3.0,7.0,80,0.00,,,0.00,,2013-05-26 16:12:00,
2013-05-26 11:23:00,71.0,65.0,28.37,SE,143,3.0,7.0,80,0.00,,,0.00,,2013-05-26 16:23:00,
2013-05-26 11:33:00,72.0,64.0,28.37,SSE,157,3.0,7.0,77,0.00,,,0.00,,2013-05-26 16:33:00,
2013-05-26 11:42:00,73.0,65.0,28.37,SE,138,4.0,7.0,76,0.00,,,0.00,,2013-05-26 16:42:00,
2013-05-26 11:53:00,73.0,65.0,28.37,SE,138,4.0,7.0,76,0.00,,,0.00,,2013-05-26 16:53:00,
2013-05-26 12:02:00,73.0,65.0,28.37,SE,138,5.0,7.0,75,0.00,,,0.00,,2013-05-26 17:02:00,
2013-05-26 12:11:00,75.0,65.0,28.34,SE,129,2.0,7.0,72,0.00,,,0.00,,2013-05-26 17:11:00,
2013-05-26 12:22:00,75.0,65.0,28.34,SE,129,2.0,7.0,72,0.00,,,0.00,,2013-05-26 17:22:00,
2013-05-26 12:32:00,75.0,65.0,28.34,SE,129,2.0,7.0,72,0.00,,,0.00,,2013-05-26 17:32:00,
2013-05-26 12:42:00,78.0,67.0,28.34,WNW,300,4.0,8.0,68,0.00,,,0.00,,2013-05-26 17:42:00,
2013-05-26 12:52:00,78.0,67.0,28.34,WNW,300,4.0,8.0,68,0.00,,,0.00,,2013-05-26 17:52:00,
2013-05-26 13:01:00,80.0,66.0,28.34,SE,128,7.0,8.0,62,0.00,,,0.00,,2013-05-26 18:01:00,
2013-05-26 13:12:00,80.0,66.0,28.34,SE,128,7.0,8.0,62,0.00,,,0.00,,2013-05-26 18:12:00,
2013-05-26 13:21:00,81.0,65.0,28.34,SSE,155,5.0,9.0,59,0.00,,,0.00,,2013-05-26 18:21:00,
2013-05-26 13:32:00,81.0,65.0,28.34,SSE,155,5.0,9.0,59,0.00,,,0.00,,2013-05-26 18:32:00,
2013-05-26 13:42:00,81.0,65.0,28.31,South,176,8.0,11.0,59,0.00,,,0.00,,2013-05-26 18:42:00,
2013-05-26 13:52:00,81.0,65.0,28.31,South,176,8.0,11.0,59,0.00,,,0.00,,2013-05-26 18:52:00,
2013-05-26 14:01:00,81.0,65.0,28.31,South,176,8.0,11.0,59,0.00,,,0.00,,2013-05-26 19:01:00,
2013-05-26 14:11:00,81.0,65.0,28.31,South,176,8.0,11.0,59,0.00,,,0.00,,2013-05-26 19:11:00,
2013-05-26 14:22:00,84.0,66.0,28.31,East,98,7.0,8.0,54,0.00,,,0.00,,2013-05-26 19:22:00,
2013-05-26 14:32:00,84.0,64.0,28.31,South,169,11.0,11.0,51,0.00,,,0.00,,2013-05-26 19:32:00,
2013-05-26 14:42:00,84.0,64.0,28.31,ESE,102,5.0,11.0,51,0.00,,,0.00,,2013-05-26 19:42:00,
2013-05-26 14:52:00,84.0,64.0,28.31,ESE,102,5.0,11.0,51,0.00,,,0.00,,2013-05-26 19:52:00,
2013-05-26 15:02:00,84.0,64.0,28.31,SSE,147,6.0,11.0,52,0.00,,,0.00,,2013-05-26 20:02:00,
2013-05-26 15:11:00,84.0,64.0,28.31,SSE,147,6.0,11.0,52,0.00,,,0.00,,2013-05-26 20:11:00,
2013-05-26 15:21:00,84.0,64.0,28.31,ESE,119,4.0,6.0,52,0.00,,,0.00,,2013-05-26 20:21:00,
2013-05-26 15:32:00,84.0,65.0,28.28,ESE,122,3.0,7.0,53,0.00,,,0.00,,2013-05-26 20:32:00,
2013-05-26 15:33:00,85.0,65.0,28.28,ESE,118,5.0,10.0,52,0.00,,,0.00,,2013-05-26 20:33:00,
2013-05-26 15:41:00,85.0,65.0,28.28,ESE,118,5.0,10.0,52,0.00,,,0.00,,2013-05-26 20:41:00,
2013-05-26 15:52:00,85.0,65.0,28.28,ESE,118,5.0,10.0,52,0.00,,,0.00,,2013-05-26 20:52:00,
2013-05-26 16:01:00,85.0,65.0,28.28,ESE,118,5.0,10.0,52,0.00,,,0.00,,2013-05-26 21:01:00,
2013-05-26 16:11:00,85.0,65.0,28.28,ESE,118,5.0,10.0,52,0.00,,,0.00,,2013-05-26 21:11:00,
2013-05-26 16:22:00,85.0,65.0,28.28,ESE,118,5.0,10.0,52,0.00,,,0.00,,2013-05-26 21:22:00,
2013-05-26 16:43:00,85.0,64.0,28.28,SSE,162,3.0,11.0,50,0.00,,,0.00,,2013-05-26 21:43:00,
2013-05-26 16:53:00,85.0,64.0,28.28,SSE,162,3.0,11.0,50,0.00,,,0.00,,2013-05-26 21:53:00,
2013-05-26 17:03:00,85.0,64.0,28.28,SSE,162,3.0,11.0,50,0.00,,,0.00,,2013-05-26 22:03:00,
2013-05-26 17:12:00,85.0,64.0,28.28,SSE,162,3.0,11.0,50,0.00,,,0.00,,2013-05-26 22:12:00,
2013-05-26 17:23:00,84.0,64.0,28.28,ESE,116,5.0,7.0,52,0.00,,,0.00,,2013-05-26 22:23:00,
2013-05-26 17:33:00,84.0,64.0,28.28,ESE,116,5.0,7.0,52,0.00,,,0.00,,2013-05-26 22:33:00,
2013-05-26 17:42:00,84.0,63.0,28.25,ESE,118,5.0,10.0,50,0.00,,,0.00,,2013-05-26 22:42:00,
2013-05-26 17:53:00,84.0,63.0,28.25,ESE,118,5.0,10.0,50,0.00,,,0.00,,2013-05-26 22:53:00,
2013-05-26 18:02:00,84.0,63.0,28.25,SE,135,5.0,10.0,50,0.00,,,0.00,,2013-05-26 23:02:00,
2013-05-26 18:12:00,84.0,63.0,28.25,SE,135,5.0,10.0,50,0.00,,,0.00,,2013-05-26 23:12:00,
2013-05-26 18:22:00,83.0,64.0,28.25,ESE,110,3.0,7.0,52,0.00,,,0.00,,2013-05-26 23:22:00,
2013-05-26 18:32:00,83.0,64.0,28.25,ESE,110,3.0,7.0,52,0.00,,,0.00,,2013-05-26 23:32:00,
2013-05-26 18:43:00,82.0,63.0,28.25,SE,124,7.0,11.0,52,0.00,,,0.00,,2013-05-26 23:43:00,
2013-05-26 18:52:00,82.0,63.0,28.25,SE,124,7.0,11.0,52,0.00,,,0.00,,2013-05-26 23:52:00,
2013-05-26 19:02:00,82.0,63.0,28.25,SE,124,7.0,11.0,52,0.00,,,0.00,,2013-05-27 00:02:00,
2013-05-26 19:11:00,82.0,63.0,28.25,SE,124,7.0,11.0,52,0.00,,,0.00,,2013-05-27 00:11:00,
2013-05-26 19:21:00,82.0,64.0,28.25,SSE,155,7.0,7.0,54,0.00,,,0.00,,2013-05-27 00:21:00,
2013-05-26 19:32:00,82.0,64.0,28.25,SSE,155,7.0,7.0,54,0.00,,,0.00,,2013-05-27 00:32:00,
2013-05-26 19:42:00,81.0,64.0,28.25,SE,144,3.0,9.0,56,0.00,,,0.00,,2013-05-27 00:42:00,
2013-05-26 19:52:00,81.0,64.0,28.25,SE,144,3.0,9.0,56,0.00,,,0.00,,2013-05-27 00:52:00,
2013-05-26 20:01:00,81.0,64.0,28.25,SE,144,3.0,9.0,56,0.00,,,0.00,,2013-05-27 01:01:00,
2013-05-26 20:11:00,81.0,64.0,28.25,SE,144,3.0,9.0,56,0.00,,,0.00,,2013-05-27 01:11:00,
2013-05-26 20:22:00,80.0,64.0,28.25,SE,126,3.0,9.0,59,0.00,,,0.00,,2013-05-27 01:22:00,
2013-05-26 20:31:00,79.0,64.0,28.25,SE,145,3.0,8.0,61,0.00,,,0.00,,2013-05-27 01:31:00,
2013-05-26 20:42:00,79.0,65.0,28.25,SE,144,3.0,8.0,62,0.00,,,0.00,,2013-05-27 01:42:00,
2013-05-26 20:52:00,79.0,65.0,28.25,SE,144,3.0,8.0,62,0.00,,,0.00,,2013-05-27 01:52:00,
2013-05-26 21:01:00,79.0,65.0,28.25,SE,144,3.0,8.0,62,0.00,,,0.00,,2013-05-27 02:01:00,
2013-05-26 21:11:00,79.0,65.0,28.25,SE,144,3.0,8.0,62,0.00,,,0.00,,2013-05-27 02:11:00,
2013-05-26 21:21:00,77.0,64.0,28.25,SSW,202,3.0,7.0,65,0.00,,,0.00,,2013-05-27 02:21:00,
2013-05-26 21:32:00,77.0,64.0,28.25,SE,137,2.0,7.0,65,0.00,,,0.00,,2013-05-27 02:32:00,
2013-05-26 21:43:00,77.0,64.0,28.25,SE,137,2.0,7.0,65,0.00,,,0.00,,2013-05-27 02:43:00,
2013-05-26 21:52:00,77.0,64.0,28.25,SE,137,2.0,7.0,65,0.00,,,0.00,,2013-05-27 02:52:00,
2013-05-26 22:02:00,76.0,65.0,28.25,SE,145,3.0,8.0,69,0.00,,,0.00,,2013-05-27 03:02:00,
2013-05-26 22:11:00,76.0,65.0,28.25,SE,145,3.0,8.0,69,0.00,,,0.00,,2013-05-27 03:11:00,
2013-05-26 22:21:00,76.0,65.0,28.25,SE,145,3.0,8.0,69,0.00,,,0.00,,2013-05-27 03:21:00,
2013-05-26 22:33:00,75.0,65.0,28.25,SE,127,5.0,7.0,70,0.00,,,0.00,,2013-05-27 03:33:00,
2013-05-26 22:42:00,75.0,65.0,28.25,SE,140,5.0,7.0,71,0.00,,,0.00,,2013-05-27 03:42:00,
2013-05-26 22:53:00,75.0,65.0,28.25,SE,140,5.0,7.0,71,0.00,,,0.00,,2013-05-27 03:53:00,
2013-05-26 23:02:00,75.0,65.0,28.25,SE,140,5.0,7.0,71,0.00,,,0.00,,2013-05-27 04:02:00,
2013-05-26 23:12:00,75.0,65.0,28.25,SE,140,5.0,7.0,71,0.00,,,0.00,,2013-05-27 04:12:00,
2013-05-26 23:23:00,75.0,65.0,28.25,SSE,147,4.0,7.0,72,0.00,,,0.00,,2013-05-27 04:23:00,
2013-05-26 23:33:00,75.0,65.0,28.25,SSE,147,4.0,7.0,72,0.00,,,0.00,,2013-05-27 04:33:00,
2013-05-26 23:43:00,74.0,66.0,28.25,SSE,151,5.0,7.0,76,0.00,,,0.00,,2013-05-27 04:43:00,
2013-05-26 23:52:00,74.0,66.0,28.25,SSE,151,5.0,7.0,76,0.00,,,0.00,,2013-05-27 04:52:00,